OpenBCM V1.07b12 (Linux)

Packet Radio Mailbox

DB0FHN

[JN59NK Nuernberg]

 Login: GUEST





  
S57NML > KEPLER   09.04.03 19:32l 121 Lines 6418 Bytes #999 (0) @ WW
BID : 943S50BOX009
Read: DO9JVN DB0FHN GUEST
Subj: 2-line Weather #03098
Path: DB0FHN<DB0ZWI<DB0HOT<OK0PBX<OK0PHK<OK0NAG<9A0BBS<S50BOX
Sent: 030409/1708z @:S50BOX.SVN.EU [Ljubljana ] bcm1.42
From: S57NML @ S50BOX.SVN.EU  (Andrej)
To:   KEPLER @ WW
X-Info: Received from 194.249.0.194 by HTTP-frontend

GOES 2                  
1 10061U 77048A   03094.96280815 -.00000035  00000-0  00000+0 0  1427
2 10061  14.1470  13.0786 0012628 201.4758 158.4375  0.99399923 39286
GOES 6                  
1 14050U 83041A   03090.91744856  .00000001  00000-0  10000-3 0  4330
2 14050  10.4525  35.2971 0004606 346.4424  13.5404  1.00314251131053
GOES 7                  
1 17561U 87022A   03093.48039988  .00000040  00000-0  10000-3 0  9126
2 17561   7.6868  55.2582 0005345 272.8753 215.5563  1.00267259 42189
INSAT 1D                
1 20643U 90051A   03097.82479164 -.00000080  00000-0  10000-3 0  9061
2 20643   4.3175  80.4239 0017378 329.1327 157.3471  1.00286764 33802
FENGYUN 1B              
1 20788U 90081A   03098.20010659 -.00000101  00000-0 -36864-4 0  9227
2 20788  99.0364  79.9352 0017327  93.3868 266.9280 14.02156186644359
METEOSAT 5 (MOP 2)      
1 21140U 91015B   03098.82236610  .00000027  00000-0  10000-3 0  7881
2 21140   5.7426  69.5742 0001097   6.4758 119.4997  1.00269273 46543
NOAA 12                 
1 21263U 91032A   03098.70110808  .00000466  00000-0  21723-3 0   348
2 21263  98.6329  87.5234 0011772 238.2053 121.7979 14.25118971618216
METEOR 3-5              
1 21655U 91056A   03097.91600525  .00000051  00000-0  10000-3 0  6332
2 21655  82.5614   4.7141 0014544  77.1928 283.0818 13.16982879559841
INSAT 2A                
1 22027U 92041A   03097.74483154 -.00000197  00000-0  10000-3 0  5576
2 22027   4.7254  77.5560 0005843 324.5615  35.5180  1.00218280 39166
INSAT 2B                
1 22724U 93048B   03096.07033243 -.00000350  00000-0  10000-3 0  3505
2 22724   2.2334  89.8264 0003412 301.4566 299.4708  1.00268799 35868
METEOR 2-21             
1 22782U 93055A   03098.42251236  .00000078  00000-0  57682-4 0  5632
2 22782  82.5526 176.1621 0022030 205.2286 154.7792 13.83534354484849
METEOSAT 6              
1 22912U 93073B   03098.12548034  .00000070  00000-0  00000+0 0  7539
2 22912   2.7947  82.2728 0001973 316.4299 212.0732  1.00280227 32789
GOES 8                  
1 23051U 94022A   03098.33532491 -.00000244  00000-0  00000+0 0  6793
2 23051   0.4159 100.8454 0002795 309.6617 191.1592  1.00261280 40292
ELEKTRO                 
1 23327U 94069A   03094.49033995  .00000003  00000-0  10000-3 0  7976
2 23327   5.3803  74.3794 0002562 177.7995 182.3298  1.00268282 30894
NOAA 14                 
1 23455U 94089A   03098.67679589  .00000216  00000-0  14019-3 0  5865
2 23455  99.1854 118.5358 0010199  90.8381 269.3958 14.13317255426418
GMS 5                   
1 23522U 95011B   03097.10962711 -.00000280  00000-0  00000+0 0  1785
2 23522   1.8666  83.4969 0000838   5.1843 285.3962  1.00260334 29366
GOES 9                  
1 23581U 95025A   03098.40051517 -.00000083  00000-0  00000+0 0  6036
2 23581   0.1523 276.3918 0012687 242.0341 349.3462  1.00074068 28858
INSAT 2C                
1 23731U 95067B   03097.83498109  .00000128  00000-0  10000-3 0  8965
2 23731   0.9082 104.5017 0009578 340.0986  99.6992  1.00277321 26874
GOES 10                 
1 24786U 97019A   03098.26221716  .00000093  00000-0  00000+0 0  6280
2 24786   0.2649 103.4257 0003706 305.7915 105.8062  1.00277744 21825
FENGYUN 2A              
1 24834U 97029A   03097.80257595 -.00000193  00000-0  00000+0 0  9946
2 24834   2.6893  87.8823 0000986 234.5833 248.6485  1.00271546 21329
ORBVIEW 2 (SEASTAR)     
1 24883U 97037A   03099.24738614  .00000785  00000-0  17605-3 0   833
2 24883  98.2168 199.6907 0002554  59.5202 300.6251 14.59253472302599
METEOSAT 7              
1 24932U 97049B   03098.90374422 -.00000004  00000-0  00000+0 0  2728
2 24932   0.3271  75.5669 0000827 248.3552 197.7804  1.00268953 20517
NOAA 15                 
1 25338U 98030A   03098.70442223  .00000295  00000-0  14618-3 0   704
2 25338  98.5477 119.5207 0010456 168.9598 191.1812 14.24269382254791
RESURS O1-N4            
1 25394U 98043A   03098.89525912  .00000237  00000-0  12235-3 0  4890
2 25394  98.6231 175.8906 0001356   6.9523 353.1670 14.23897689246554
INSAT 2E                
1 25666U 99016A   03098.71148383 -.00000162  00000-0  00000+0 0  6621
2 25666   0.0483  71.3054 0006380 207.9512 256.4599  1.00271808 14838
FENGYUN 1C              
1 25730U 99025A   03097.98945290 -.00000007  00000-0  19443-4 0  8270
2 25730  98.6317 120.5658 0013776 222.3108 137.7002 14.11739275201465
QUIKSCAT                
1 25789U 99034A   03098.03126296  .00000131  00000-0  72353-4 0  7789
2 25789  98.6367 284.4451 0001342  49.9506 310.1787 14.26595919197895
INSAT 3B                
1 26108U 00016B   03096.81301006 -.00000162  00000-0  00000+0 0  4186
2 26108   0.0288 131.6957 0013013 176.4639 262.2836  1.00272936 11150
GOES 11                 
1 26352U 00022A   03097.82098766 -.00000026  00000-0  10000-3 0  1015
2 26352   0.2611  99.2877 0002740 233.5003  44.3920  1.00271130 10728
FENGYUN 2B              
1 26382U 00032A   03097.59805443 -.00000326  00000-0  00000+0 0  8252
2 26382   0.4479 289.1923 0002160 217.0186   9.0177  1.00274503 10192
NOAA 16                 
1 26536U 00055A   03098.47873397  .00000547  00000-0  32349-3 0  2814
2 26536  98.9090  46.4214 0010718 163.4475 196.7048 14.11935628131052
GOES 12                 
1 26871U 01031A   03098.20330806 -.00000236  00000-0  10000-3 0  9065
2 26871   0.2067 275.1569 0001091  76.1285 198.4061  1.00351491  6320
METEOR-3M               
1 27001U 01056A   03098.22300102  .00000139  00000-0  21472-3 0  1424
2 27001  99.5847 335.9784 0014604 125.3991 234.8499 13.68201825 66128
INSAT 3C                
1 27298U 02002A   03098.68140394 -.00000074  00000-0  00000+0 0  2496
2 27298   0.0516 141.0892 0004460 261.7530 112.9464  1.00272455  4439
FENGYUN 1D              
1 27431U 02024B   03098.51549704  .00000110  00000-0  87919-4 0  2566
2 27431  98.7616 146.1643 0015289 349.6826  10.4029 14.09183966 46265
NOAA 17                 
1 27453U 02032A   03098.70424920  .00000394  00000-0  19337-3 0  3666
2 27453  98.7474 169.6342 0011316 211.3831 148.6673 14.23326118 40958
MSG-1                   
1 27509U 02040B   03092.06684608 -.00000094  00000-0  00000+0 0  1615
2 27509   1.5776 303.4938 0002385 115.7660 144.3478  1.00273168  2253
METSAT 1                
1 27525U 02043A   03098.68153356 -.00000075  00000-0  00000+0 0  1216
2 27525   0.0216 245.4751 0003926  37.0946 233.3161  1.00272903  2127


73's de Andrej S57NML
TX 9/4/2003 


Read previous mail | Read next mail


 16.09.2025 03:18:32lGo back Go up